singapore: the smallest big galery
home » forum » Mods

You are not logged in.

Mods

Topic Replies Views Last post
0 349 2017-02-28 15:00:40 by linrx
wordpress template by gingster
8 19296 2013-07-09 13:04:18 by SPOT LIGHTSA
8 9885 2013-06-10 13:13:10 by political
imagemap_navigation = off by snapfamous
2 4578 2013-06-04 04:57:25 by 5Linx a
paypal integration by bwaje
7 12490 2013-05-01 13:30:28 by Mlm
pagination by eddiejanzer
3 7859 2013-04-17 06:43:04 by Rocky90241
Exif howto by bluemoon
13 22342 2013-01-30 09:37:52 by tentionfree
0 2465 2013-01-30 08:06:25 by DavidElise
0 2427 2013-01-30 07:23:28 by seven22
0 2540 2013-01-24 14:42:14 by cheapserviceget
0 2578 2013-01-22 07:08:27 by leopold89
Moving images via admin by forty two  [ 1 2 3 ]
39 70338 2013-01-21 07:48:47 by amusalin
Full Size Image Popup by quicksketch
14 36737 2013-01-17 08:59:30 by forger
0 2562 2012-12-06 06:18:01 by Mattiy
1 5042 2011-12-01 06:42:20 by dick123
facebook like button? by steliosk
4 6952 2011-08-25 21:28:10 by PrimaFoto
2 4676 2011-08-22 20:50:53 by focale31
1 3814 2011-07-05 07:20:25 by mikeatx
2 5497 2011-06-27 19:47:31 by DC
7 13894 2011-06-22 18:04:53 by pcphotos
9 26489 2011-03-27 17:18:14 by DC
14 26193 2010-01-21 15:48:06 by phyllis01
1 4923 2010-01-20 01:56:41 by DC
upload multiple files by eddiejanzer
9 17332 2009-05-18 17:58:31 by PrimaFoto
0 4819 2009-05-13 05:28:55 by DC
8 20843 2008-11-03 04:22:36 by DC
Posting comments by VSingh
1 5705 2008-10-26 22:02:55 by DC
1 6332 2008-09-12 11:54:11 by crash01
4 9860 2008-07-16 22:38:21 by DC
singapore and wordpress by eddiejanzer
3 8679 2008-03-27 13:13:52 by pavian